Weather History for KMIA - December, 2011

Change the Weather History Date:

Monday, December 26, 2011

  Actual Average Record
Temperature  
Mean Temperature 75 °F 69 °F  
Max Temperature 82 °F 77 °F 88 °F (1941)
Min Temperature 68 °F 61 °F 32 °F (1906)
Degree Days  
Heating Degree Days 0 2  
Month to date heating degree days 0 24  
Since 1 July heating degree days 0 27  
Cooling Degree Days 10 6  
Month to date cooling degree days 240 176  
Year to date cooling degree days 4971 4548  
Growing Degree Days 25 (Base 50)    
Moisture  
Dew Point 66 °F    
Average Humidity 72    
Maximum Humidity 90    
Minimum Humidity 54    
Precipitation  
Precipitation 0.00 in 0.06 in 3.75 in (2013)
Month to date precipitation 1.04 1.75  
Year to date precipitation 63.78 61.61  
Snow  
Snow 0.00 in - - ()
Month to date snowfall 0.0  
Since 1 July snowfall 0.0  
Snow Depth 0.00 in    
Sea Level Pressure  
Sea Level Pressure 30.15 in    
Wind  
Wind Speed 5 mph (ESE)    
Max Wind Speed 12 mph    
Max Gust Speed 16 mph    
Visibility 10 miles    
Events      
T = Trace of Precipitation, MM = Missing Value Source: NWS Daily Summary

Daily Weather History Graph

Daily Weather History Graph

Search for Another Location

Airport or City:

Trip Planner

Search our weather history database for the weather conditions in past years. The results will help you decide how hot, cold, wet, or windy it might be!

Date:

Astronomy

Dec. 26, 2011 Rise Set
Actual Time 7:05 AM EST 5:37 PM EST
Civil Twilight 6:40 AM EST 6:03 PM EST
Nautical Twilight 6:11 AM EST 6:31 PM EST
Astronomical Twilight 5:43 AM EST 6:59 PM EST
Moon 8:34 AM EST (12/26) 7:52 PM EST (12/26)
Length of Visible Light 11h 22m
Length of Day
10h 32m
Waxing Crescent, 5% of the Moon is Illuminated
Dec 26
Waxing Crescent
Jan 1
First Quarter
Jan 9
Full
Jan 16
Last Quarter
Jan 23
New

Hourly Weather History & Observations

Time (EST) Temp. Heat Index Dew Point Humidity Pressure Visibility Wind Dir Wind Speed Gust Speed Precip Events Conditions
12:53 AM 73.0 °F - 68.0 °F 84% 30.17 in 10.0 mi ESE 5.8 mph - N/A   Scattered Clouds
1:53 AM 72.0 °F - 66.9 °F 84% 30.15 in 10.0 mi East 4.6 mph - N/A   Clear
2:53 AM 73.0 °F - 68.0 °F 84% 30.14 in 10.0 mi Calm Calm - N/A   Scattered Clouds
3:53 AM 71.1 °F - 66.9 °F 87% 30.14 in 10.0 mi Calm Calm - N/A   Scattered Clouds
4:53 AM 69.1 °F - 66.9 °F 93% 30.13 in 10.0 mi Calm Calm - N/A   Scattered Clouds
5:53 AM 70.0 °F - 66.9 °F 90% 30.14 in 10.0 mi Calm Calm - N/A   Scattered Clouds
6:53 AM 69.8 °F - 66.2 °F 88% 30.14 in 10.0 mi Calm Calm - N/A   Scattered Clouds
7:53 AM 71.1 °F - 68.0 °F 90% 30.16 in 10.0 mi ESE 3.5 mph - N/A   Scattered Clouds
8:53 AM 75.9 °F - 68.0 °F 76% 30.18 in 10.0 mi East 5.8 mph - N/A   Scattered Clouds
9:53 AM 78.1 °F - 66.0 °F 66% 30.19 in 10.0 mi East 8.1 mph - N/A   Scattered Clouds
10:53 AM 79.0 °F - 66.0 °F 64% 30.19 in 10.0 mi ESE 8.1 mph - N/A   Scattered Clouds
11:53 AM 79.0 °F - 64.9 °F 62% 30.17 in 10.0 mi ESE 6.9 mph - N/A   Mostly Cloudy
12:53 PM 81.0 °F 82.7 °F 64.9 °F 58% 30.15 in 10.0 mi ESE 8.1 mph - N/A   Scattered Clouds
1:53 PM 81.0 °F 81.9 °F 62.1 °F 52% 30.12 in 10.0 mi East 5.8 mph - N/A   Scattered Clouds
2:53 PM 78.1 °F - 62.1 °F 58% 30.11 in 10.0 mi East 8.1 mph - N/A   Scattered Clouds
3:53 PM 79.0 °F - 64.0 °F 60% 30.11 in 10.0 mi ESE 6.9 mph - N/A   Scattered Clouds
4:53 PM 77.0 °F - 64.0 °F 64% 30.12 in 10.0 mi SE 5.8 mph - N/A   Scattered Clouds
5:53 PM 75.0 °F - 64.9 °F 71% 30.13 in 10.0 mi SE 5.8 mph - N/A   Scattered Clouds
6:53 PM 73.9 °F - 64.9 °F 73% 30.15 in 10.0 mi ESE 4.6 mph - N/A   Partly Cloudy
7:53 PM 73.0 °F - 64.9 °F 76% 30.16 in 10.0 mi East 5.8 mph - N/A   Mostly Cloudy
8:53 PM 73.9 °F - 64.9 °F 73% 30.16 in 10.0 mi East 3.5 mph - N/A   Mostly Cloudy
9:53 PM 72.0 °F - 64.9 °F 78% 30.15 in 10.0 mi ESE 5.8 mph - N/A   Clear
10:53 PM 72.0 °F - 64.9 °F 78% 30.14 in 10.0 mi East 5.8 mph - N/A   Partly Cloudy
11:53 PM 72.0 °F - 63.0 °F 73% 30.12 in 10.0 mi East 5.8 mph - N/A   Scattered Clouds